Location: ??????
(55.6361°N, 38.0803°E)
Time: 00:09:26
(UTC+00:00)

Cosmos 1733 Rocket - Pass Details

Date: 30 March 2020
Orbit: 604 x 628 km, 82.5° (Epoch: 27 May)

Event Time Altitude Azimuth Distance (km) Brightness Sun altitude
Rises 00:43:03 0° 345° (NNW) 2,893 6.8 -18.8°
Reaches altitude 10° 00:45:19 10° 340° (NNW) 1,987 5.9 -18.6°
Maximum altitude 00:49:35 52° 265° (W) 774 3.2 -18.1°
Enters shadow 00:51:02 36° 211° (SSW) 993 3.6 -18.0°
